Home   Weather   Kotka   Past weeks

Flag for Finland Past Weather in Kotka, Finland — Yesterday and Last 2 Weeks

Now
19 °F

Light snow. Passing clouds.


Feels Like: 5 °F
Forecast: 19 / 26 °F
Wind: 15 mph from Northwest

Location: Utti

Current Time: Dec 5, 2016 at 10:41:20 pm

Latest Report: Dec 5, 2016 at 10:20 pm


Visibility: N/A

Pressure: 29.68 "Hg

Humidity: 73%

Dew Point: 12 °F

Location of KotkaLocation

Past Weather in Kotka — Graph

°F

Kotka Temperature Yesterday

Maximum temperature yesterday: 32 °F (at 11:20 pm)
Minimum temperature yesterday: 14 °F (at 11:20 am)
Average temperature yesterday: 18 °F

High & Low Weather Summary for the Past Weeks

 TemperatureHumidityPressure
High45 °F (Nov 21, 6:20 pm)100% (Nov 20, 9:20 pm)30.15 "Hg (Nov 20, 9:20 pm)
Low14 °F (Dec 3, 7:50 pm)68% (Dec 5, 6:20 pm)28.94 "Hg (Nov 26, 7:50 pm)
Average29 °F92%29.69 "Hg
* Reported Nov 20 9:20 pm — Dec 5 9:20 pm, Kotka, Weather by CustomWeather, © 2016

Note: Actual official high and low records may vary slightly from our data, if they occured in-between our weather recording intervals... More about our weather records

Advertising

Kotka Weather History for the Previous 24 Hours

Scroll right to see more
 ConditionsComfort  
Time TempWeatherWind HumidityBarometerVisibility
9:20 pm
Mon, Dec 5
19 °FLight snow. Overcast.15 mph73%29.65 "HgN/A
8:50 pm19 °FLight snow. Passing clouds.18 mph68%29.65 "HgN/A
8:20 pm19 °FLight snow. Overcast.18 mph73%29.62 "HgN/A
7:50 pm19 °FSnow flurries. Overcast.14 mph73%29.59 "HgN/A
7:20 pm21 °FPassing clouds.15 mph68%29.56 "HgN/A
6:50 pm21 °FPassing clouds.15 mph74%29.56 "HgN/A
6:20 pm23 °FPassing clouds.15 mph68%29.53 "HgN/A
5:50 pm25 °FSnow flurries. Passing clouds.17 mph69%29.50 "HgN/A
5:20 pm25 °FSnow flurries. Passing clouds.16 mph74%29.47 "HgN/A
4:50 pm27 °FSnow flurries. Passing clouds.18 mph69%29.47 "HgN/A
4:20 pm27 °FLight snow. Overcast.16 mph74%29.45 "HgN/A
3:50 pm28 °FSnow flurries. Passing clouds.18 mph80%29.42 "HgN/A
3:20 pm32 °FPassing clouds.20 mph69%29.36 "HgN/A
2:50 pm32 °FPartly sunny.21 mph75%29.36 "HgN/A
2:20 pm34 °FPartly sunny.18 mph70%29.33 "HgN/A
1:50 pm34 °FPartly sunny.20 mph70%29.33 "HgN/A
1:20 pm34 °FPartly sunny.18 mph70%29.30 "HgN/A
12:50 pm34 °FPartly sunny.20 mph75%29.30 "HgN/A
12:20 pm34 °FScattered clouds.20 mph75%29.27 "HgN/A
11:50 am34 °FPartly sunny.23 mph75%29.27 "HgN/A
11:20 am36 °FSnow flurries. Partly sunny.21 mph81%29.24 "HgN/A
10:50 am36 °FSnow flurries. Partly sunny.21 mph81%29.24 "HgN/A
10:20 am37 °FPartly sunny.18 mph75%29.21 "HgN/A
9:50 am37 °FPartly sunny.21 mph81%29.18 "HgN/A
9:20 am39 °FSprinkles. Partly sunny.20 mph81%29.18 "HgN/A
8:50 am39 °FPassing clouds.20 mph81%29.15 "HgN/A
8:20 am39 °FPassing clouds.20 mph87%29.15 "HgN/A
7:50 am39 °FPassing clouds.16 mph87%29.15 "HgN/A
7:20 am39 °FPassing clouds.16 mph87%29.18 "HgN/A
6:50 am37 °FPassing clouds.16 mph93%29.21 "HgN/A
6:20 am37 °FLow clouds.16 mph93%29.21 "HgN/A
5:50 am37 °FLow clouds.16 mph93%29.24 "HgN/A
5:20 am37 °FLow clouds.18 mph93%29.24 "HgN/A
4:50 am37 °FLow clouds.17 mph93%29.27 "Hg4 mi
4:20 am36 °FLow clouds.16 mph100%29.30 "Hg3 mi
3:50 am36 °FFog.17 mph93%29.30 "Hg2 mi
3:20 am36 °FLow clouds.16 mph93%29.33 "Hg3 mi
2:50 am36 °FLow clouds.15 mph93%29.36 "Hg4 mi
2:20 am34 °FFog.14 mph100%29.39 "Hg2 mi
1:50 am34 °FFog.13 mph100%29.42 "Hg1 mi
1:20 am34 °FLow clouds.14 mph100%29.42 "Hg4 mi
12:50 am34 °FLow clouds.13 mph93%29.45 "Hg4 mi
12:20 am34 °FSnow flurries. Low clouds.14 mph93%29.47 "Hg4 mi
11:50 pm
Sun, Dec 4
32 °FLight rain. Low clouds.13 mph100%29.50 "Hg2 mi
11:20 pm32 °FLight rain. Low clouds.14 mph100%29.53 "Hg1 mi
10:50 pm30 °FSnow. Low clouds.13 mph100%29.53 "Hg1 mi
10:20 pm30 °FSnow. Low clouds.13 mph93%29.59 "Hg1 mi
Weather by CustomWeather, © 2016

See weather overviewHow to use our weather pages